Location: Newark
(50.4348°N, 30.5552°E)
Time: 14:53:03
(UTC+00:00)

Altair - Pass Details

Date: 23 January 2020
Orbit: 1502 x 1682 km, 47.2° (Epoch: 25 February)

Event Time Altitude Azimuth Distance (km) Brightness Sun altitude
Rises 08:41:39 0° 248° (WSW) 4,909 10.2 17.4°
Reaches altitude 10° 08:44:48 10° 246° (WSW) 3,933 9.7 17.6°
Maximum altitude 08:54:51 70° 166° (SSE) 1,774 8.6 18.1°
Drops below altitude 10° 09:04:51 10° 86° (E) 3,917 9.9 18.6°
Sets 09:07:59 0° 84° (E) 4,888 10.3 18.7°
